KC8YVF-1 Weather Reports


time (UTC)temp
C
wind
direction
speed
KPH
gust
KPH
rain 1hr
cm
rain 24hr
cm
rain mn
cm
humidity
%
barometer
mb
20260510232509 13 315 0.0 0.0 0.00 0.00 0.00 40 1005.0
20260510232010 13 315 0.0 0.0 0.00 0.00 0.00 40 1005.0
20260510231510 13 338 0.0 0.0 0.00 0.00 0.00 40 1005.1
20260510231009 13 338 0.0 0.0 0.00 0.00 0.00 40 1005.1
20260510230510 13 270 0.0 0.0 0.00 0.00 0.00 40 1005.0
20260510230010 13 293 0.0 0.0 0.00 0.00 0.00 39 1005.0
20260510225516 13 293 0.0 0.0 0.00 0.00 0.00 39 1005.0
20260510225009 13 270 0.0 0.0 0.00 0.00 0.00 39 1005.0
20260510224509 13 293 0.0 0.0 0.00 0.00 0.00 40 1005.0
20260510224010 14 270 0.0 0.0 0.00 0.00 0.00 40 1005.0
20260510223511 14 293 0.0 0.0 0.00 0.00 0.00 40 1005.0
20260510223010 14 293 0.0 0.0 0.00 0.00 0.00 40 1005.0
20260510222510 14 270 0.0 0.0 0.00 0.00 0.00 40 1005.0
20260510222010 14 248 0.0 0.0 0.00 0.00 0.00 40 1004.7
20260510221510 14 270 0.0 0.0 0.00 0.00 0.00 41 1004.7
20260510221009 13 293 0.0 0.0 0.00 0.00 0.00 41 1004.7
20260510220510 13 293 0.0 0.0 0.00 0.00 0.00 41 1005.0
20260510220010 13 293 0.0 0.0 0.00 0.00 0.00 41 1004.7
20260510215510 13 315 0.0 0.0 0.00 0.00 0.00 41 1004.7
20260510215010 13 248 0.0 0.0 0.00 0.00 0.00 41 1004.7
20260510214511 13 270 0.0 0.0 0.00 0.00 0.00 41 1004.4
20260510214010 13 270 0.0 0.0 0.00 0.00 0.00 41 1004.4
20260510213510 13 293 0.0 0.0 0.00 0.00 0.00 41 1004.4
20260510213011 13 315 0.0 0.0 0.00 0.00 0.00 40 1004.4
20260510212516 13 315 0.0 0.0 0.00 0.00 0.00 40 1004.4
20260510212010 14 225 0.0 0.0 0.00 0.00 0.00 40 1004.0
20260510211510 14 293 0.0 0.0 0.00 0.00 0.00 40 1004.2
20260510211018 14 270 0.0 0.0 0.00 0.00 0.00 40 1004.0
20260510210510 14 203 0.0 0.0 0.00 0.00 0.00 40 1004.1
20260510205510 14 270 0.0 0.0 0.00 0.00 0.00 40 1004.0
20260510205009 14 293 0.0 0.0 0.00 0.00 0.00 40 1004.0
20260510204010 14 203 0.0 0.0 0.00 0.00 0.00 40 1004.0
20260510203510 14 225 0.0 0.0 0.00 0.00 0.00 40 1004.0
20260510203009 14 248 0.0 0.0 0.00 0.00 0.00 40 1004.0
20260510202510 14 225 0.0 0.0 0.00 0.00 0.00 40 1004.2
20260510202009 14 270 0.0 0.0 0.00 0.00 0.00 40 1004.4
20260510201510 14 315 0.0 0.0 0.00 0.00 0.00 40 1004.3
20260510201011 14 248 0.0 0.0 0.00 0.00 0.00 40 1004.4
20260510200509 14 293 0.0 0.0 0.00 0.00 0.00 40 1004.4
20260510200010 14 293 0.0 0.0 0.00 0.00 0.00 40 1004.1
20260510195509 14 225 0.0 0.0 0.00 0.00 0.00 40 1004.4
20260510195009 14 270 0.0 0.0 0.00 0.00 0.00 40 1004.4
20260510194010 15 315 0.0 0.0 0.00 0.00 0.00 41 1004.4
20260510193509 15 270 0.0 0.0 0.00 0.00 0.00 40 1004.4
20260510193010 15 293 0.0 0.0 0.00 0.00 0.00 41 1004.4
20260510192510 15 293 0.0 0.0 0.00 0.00 0.00 41 1004.4
20260510192010 14 293 0.0 0.0 0.00 0.00 0.00 41 1004.4
20260510191509 14 293 0.0 0.0 0.00 0.00 0.00 40 1004.4
20260510191011 14 270 0.0 0.0 0.00 0.00 0.00 40 1004.4
20260510190510 13 270 0.0 0.0 0.00 0.00 0.00 40 1004.4
20260510190010 13 293 0.0 0.0 0.00 0.00 0.00 41 1004.4
20260510185510 13 225 0.0 0.0 0.00 0.00 0.00 40 1004.4
20260510185009 13 248 0.0 0.0 0.00 0.00 0.00 40 1004.4
20260510184511 13 270 0.0 0.0 0.00 0.00 0.00 40 1004.4
20260510184017 14 248 0.0 0.0 0.00 0.00 0.00 40 1004.0
20260510183510 14 293 0.0 0.0 0.00 0.00 0.00 40 1004.3
20260510183010 14 270 0.0 0.0 0.00 0.00 0.00 40 1004.0
20260510182510 14 225 0.0 0.0 0.00 0.00 0.00 40 1004.0
20260510182009 14 203 0.0 0.0 0.00 0.00 0.00 40 1004.0
20260510181017 13 270 0.0 0.0 0.00 0.00 0.00 40 1004.0
20260510180509 13 225 0.0 0.0 0.00 0.00 0.00 40 1004.0
20260510180010 14 338 0.0 0.0 0.00 0.00 0.00 40 1004.0
20260510175510 14 293 0.0 0.0 0.00 0.00 0.00 40 1003.8
20260510175009 14 225 0.0 0.0 0.00 0.00 0.00 41 1003.7
20260510174010 15 248 0.0 0.0 0.00 0.00 0.00 40 1003.7
20260510173010 15 248 0.0 0.0 0.00 0.00 0.00 41 1003.7
20260510172510 15 248 0.0 0.0 0.00 0.00 0.00 40 1003.7
20260510172010 15 248 0.0 0.0 0.00 0.00 0.00 40 1003.8
20260510171509 15 225 0.0 0.0 0.00 0.00 0.00 40 1004.0
20260510171011 15 293 0.0 0.0 0.00 0.00 0.00 41 1004.1
20260510170510 15 315 0.0 0.0 0.00 0.00 0.00 42 1004.0
20260510170010 15 315 0.0 0.0 0.00 0.00 0.00 42 1004.0
20260510165511 15 338 0.0 0.0 0.00 0.00 0.00 41 1004.0
20260510165010 15 203 0.0 0.0 0.00 0.00 0.00 41 1004.0
20260510164509 15 180 0.0 0.0 0.00 0.00 0.00 42 1004.1
20260510164016 15 338 0.0 0.0 0.00 0.00 0.00 42 1004.0
20260510163509 15 338 0.0 0.0 0.00 0.00 0.00 43 1004.1
20260510162510 14 293 0.0 0.0 0.00 0.00 0.00 44 1004.2
20260510162009 14 315 0.0 0.0 0.00 0.00 0.00 44 1004.0
20260510161010 13 293 0.0 0.0 0.00 0.00 0.00 44 1004.0
20260510160509 13 248 0.0 0.0 0.00 0.00 0.00 45 1004.0
20260510155518 13 270 0.0 0.0 0.00 0.00 0.00 45 1004.0
20260510155010 12 293 0.0 0.0 0.00 0.00 0.00 44 1004.0
20260510154510 12 315 0.0 0.0 0.00 0.00 0.00 48 1004.0
20260510154017 12 270 0.0 0.0 0.00 0.00 0.00 48 1004.0
20260510153509 11 293 0.0 0.0 0.00 0.00 0.00 49 1004.0
20260510153009 11 315 0.0 0.0 0.00 0.00 0.00 48 1004.0
20260510152511 11 338 0.0 0.0 0.00 0.00 0.00 51 1004.0
20260510152009 11 338 0.0 0.0 0.00 0.00 0.00 51 1004.0
20260510151510 11 248 0.0 0.0 0.00 0.00 0.00 51 1004.0
20260510151017 10 270 0.0 0.0 0.00 0.00 0.00 51 1004.0
20260510150510 10 315 0.0 0.0 0.00 0.00 0.00 51 1004.0
20260510145509 10 270 0.0 0.0 0.00 0.00 0.00 52 1003.8
20260510145010 10 293 0.0 0.0 0.00 0.00 0.00 52 1003.9
20260510144509 10 293 0.0 0.0 0.00 0.00 0.00 53 1003.7
20260510144011 10 293 0.0 0.0 0.00 0.00 0.00 53 1003.7
20260510143013 10 248 0.0 0.0 0.00 0.00 0.00 53 1003.7
20260510142510 9 338 0.0 0.0 0.00 0.00 0.00 52 1003.7
20260510142010 9 315 0.0 0.0 0.00 0.00 0.00 52 1003.7
20260510141511 9 315 0.0 0.0 0.00 0.00 0.00 53 1003.7
20260510141010 9 293 0.0 0.0 0.00 0.00 0.00 53 1003.7
20260510140010 9 338 0.0 0.0 0.00 0.00 0.00 54 1003.7
20260510135510 9 293 0.0 0.0 0.00 0.00 0.00 54 1003.7
20260510135010 9 338 0.0 0.0 0.00 0.00 0.00 54 1003.7
20260510134510 9 315 0.0 0.0 0.00 0.00 0.00 55 1003.7
20260510134009 9 338 0.0 0.0 0.00 0.00 0.00 55 1003.7
20260510133009 9 293 0.0 0.0 0.00 0.00 0.00 55 1003.7
20260510132509 9 248 0.0 0.0 0.00 0.00 0.00 56 1003.7
20260510132009 9 315 0.0 0.0 0.00 0.00 0.00 56 1003.5
20260510131010 9 315 0.0 0.0 0.00 0.00 0.00 57 1003.3
20260510130510 9 293 0.0 0.0 0.00 0.00 0.00 57 1003.3
20260510130009 9 270 0.0 0.0 0.00 0.00 0.00 59 1003.3
20260510125511 9 248 0.0 0.0 0.00 0.00 0.00 59 1003.2
20260510125011 8 248 0.0 0.0 0.00 0.00 0.00 59 1003.3
20260510124511 8 225 0.0 0.0 0.00 0.00 0.00 61 1003.3
20260510124017 8 225 0.0 0.0 0.00 0.00 0.00 62 1003.3
20260510123510 8 270 0.0 0.0 0.00 0.00 0.00 62 1003.3
20260510123009 7 270 0.0 0.0 0.00 0.00 0.00 64 1003.0
20260510122517 7 270 0.0 0.0 0.00 0.00 0.00 65 1003.0
20260510122009 7 293 0.0 0.0 0.00 0.00 0.00 65 1002.8
20260510121011 6 270 0.0 0.0 0.00 0.00 0.00 67 1002.7
20260510120510 6 270 0.0 0.0 0.00 0.00 0.00 69 1002.7
20260510120009 6 315 0.0 0.0 0.00 0.00 0.00 70 1002.7
20260510115510 5 315 0.0 0.0 0.00 0.00 0.00 71 1002.7
20260510115011 4 315 0.0 0.0 0.00 0.00 0.00 72 1002.7
20260510114017 3 315 0.0 0.0 0.00 0.00 0.00 72 1002.7
20260510113009 2 315 0.0 0.0 0.00 0.00 0.00 71 1002.7
20260510112510 2 315 0.0 0.0 0.00 0.00 0.00 70 1002.3
20260510111510 1 315 0.0 0.0 0.00 0.00 0.00 69 1002.3
20260510111009 1 315 0.0 0.0 0.00 0.00 0.00 69 1002.3
20260510110510 1 315 0.0 0.0 0.00 0.00 0.00 69 1002.1
20260510110011 1 315 0.0 0.0 0.00 0.00 0.00 68 1002.0
20260510105517 1 315 0.0 0.0 0.00 0.00 0.00 68 1001.6
20260510105009 1 315 0.0 0.0 0.00 0.00 0.00 68 1001.6
20260510104511 2 315 0.0 0.0 0.00 0.00 0.00 67 1001.6
20260510104010 2 315 0.0 0.0 0.00 0.00 0.00 67 1001.6
20260510103010 2 315 0.0 0.0 0.00 0.00 0.00 66 1001.3
20260510102510 2 315 0.0 0.0 0.00 0.00 0.00 66 1001.3
20260510102010 2 315 0.0 0.0 0.00 0.00 0.00 66 1001.3
20260510101017 2 315 0.0 0.0 0.00 0.00 0.00 65 1001.0
20260510100510 2 315 0.0 0.0 0.00 0.00 0.00 65 1001.0
20260510100010 2 315 0.0 0.0 0.00 0.00 0.00 65 1001.0
20260510095510 3 315 0.0 0.0 0.00 0.00 0.00 65 1001.0
20260510094510 3 315 0.0 0.0 0.00 0.00 0.00 64 1001.0
20260510094018 3 315 0.0 0.0 0.00 0.00 0.00 64 1001.0
20260510093510 3 315 0.0 0.0 0.00 0.00 0.00 64 1001.0
20260510093009 3 315 0.0 0.0 0.00 0.00 0.00 63 1001.0
20260510092511 3 315 0.0 0.0 0.00 0.00 0.00 63 1001.0
20260510092011 3 315 0.0 0.0 0.00 0.00 0.00 63 1001.0
20260510091509 4 315 0.0 0.0 0.00 0.00 0.00 63 1001.0
20260510091011 4 315 0.0 0.0 0.00 0.00 0.00 62 1001.0
20260510090510 4 315 0.0 0.0 0.00 0.00 0.00 62 1000.6
20260510085510 5 315 0.0 0.0 0.00 0.00 0.00 62 1000.4
20260510084009 5 315 0.0 0.0 0.00 0.00 0.00 62 1000.2
20260510083510 5 315 0.0 0.0 0.00 0.00 0.00 62 1000.0
20260510083011 5 315 0.0 0.0 0.00 0.00 0.00 62 1000.0
20260510082510 5 338 0.0 0.0 0.00 0.00 0.00 62 1000.0
20260510082011 5 338 0.0 0.0 0.00 0.00 0.00 62 1000.0
20260510081510 5 338 0.0 0.0 0.00 0.00 0.00 62 1000.0
20260510081017 5 338 0.0 0.0 0.00 0.00 0.00 62 999.6
20260510080510 5 338 0.0 0.0 0.00 0.00 0.00 62 999.6
20260510075510 5 338 0.0 0.0 0.00 0.00 0.00 62 999.6
20260510074509 5 338 0.0 0.0 0.00 0.00 0.00 61 999.6
20260510074016 5 338 0.0 0.0 0.00 0.00 0.00 61 999.5
20260510073511 5 338 0.0 0.0 0.00 0.00 0.00 61 999.3
20260510073010 5 338 0.0 0.0 0.00 0.00 0.00 60 999.3
20260510072511 5 338 0.0 0.0 0.00 0.00 0.00 60 999.3
20260510072011 5 338 0.0 0.0 0.00 0.00 0.00 59 999.3
20260510071510 5 338 0.0 0.0 0.00 0.00 0.00 59 999.3
20260510071017 5 338 0.0 0.0 0.00 0.00 0.00 58 998.9
20260510070510 5 338 0.0 0.0 0.00 0.00 0.00 58 998.9
20260510070011 6 338 0.0 0.0 0.00 0.00 0.00 58 998.9
20260510065510 6 338 0.0 0.0 0.00 0.00 0.00 57 998.9
20260510064510 6 338 0.0 0.0 0.00 0.00 0.00 57 998.9
20260510064010 6 338 0.0 0.0 0.00 0.00 0.00 57 998.9
20260510062510 6 338 0.0 0.0 0.00 0.00 0.00 57 998.8
20260510062010 6 0 0.0 0.0 0.00 0.00 0.00 56 998.6
20260510061011 6 315 0.0 0.0 0.00 0.00 0.00 56 998.6
20260510060511 6 338 0.0 0.0 0.00 0.00 0.00 56 998.6
20260510060010 6 338 0.0 0.0 0.00 0.00 0.00 56 998.6
20260510055509 6 338 0.0 0.0 0.00 0.00 0.00 56 998.5
20260510055010 7 315 0.0 0.0 0.00 0.00 0.00 56 998.4
20260510054511 7 315 0.0 0.0 0.00 0.00 0.00 56 998.3
20260510054012 7 315 0.0 0.0 0.00 0.00 0.00 56 998.3
20260510053512 7 338 0.0 0.0 0.00 0.00 0.00 56 998.3
20260510053009 7 315 0.0 0.0 0.00 0.00 0.00 56 998.1
20260510052518 7 338 0.0 0.0 0.00 0.00 0.00 56 998.1
20260510052010 7 338 0.0 0.0 0.00 0.00 0.00 55 997.9
20260510051011 7 338 0.0 0.0 0.00 0.00 0.00 55 997.7
20260510050510 7 338 0.0 0.0 0.00 0.00 0.00 55 997.6
20260510050010 8 0 0.0 0.0 0.00 0.00 0.00 54 997.6
20260510045509 8 338 0.0 0.0 0.00 0.00 0.00 54 997.4
20260510045011 8 338 0.0 0.0 0.00 0.00 0.00 54 997.2
20260510044010 8 0 0.0 0.0 0.00 0.00 0.00 54 997.2
20260510043510 8 0 0.0 0.0 0.00 0.00 0.00 54 997.2
20260510042511 9 0 0.0 0.0 0.00 0.00 0.00 53 996.9
20260510042010 9 338 0.0 0.0 0.00 0.00 0.00 53 996.9
20260510041011 9 338 0.0 0.0 0.00 0.00 0.00 53 996.6
20260510040510 9 338 0.0 0.0 0.00 0.00 0.00 53 996.6
20260510040010 9 0 0.0 0.0 0.00 0.00 0.00 53 996.6
20260510035511 10 338 0.0 0.0 0.00 0.00 0.00 53 996.2
20260510034510 10 338 0.0 0.0 0.00 0.00 0.00 53 996.2
20260510034011 10 315 0.0 0.0 0.00 0.00 0.00 54 996.0
20260510033510 10 293 0.0 0.0 0.00 0.00 0.00 54 995.9
20260510033011 10 338 0.0 0.0 0.00 0.00 0.00 55 995.9
20260510032509 10 338 0.0 0.0 0.00 0.00 0.00 55 995.9
20260510032009 10 315 0.0 0.0 0.00 0.00 0.00 56 995.5
20260510031510 10 0 0.0 0.0 0.00 0.00 0.00 56 995.5
20260510031010 10 338 0.0 0.0 0.00 0.00 0.00 57 995.5
20260510030510 10 338 0.0 0.0 0.00 0.00 0.00 57 995.5
20260510025511 10 338 0.0 0.0 0.00 0.00 0.00 55 995.2
20260510025011 10 338 0.0 0.0 0.00 0.00 0.00 55 995.2
20260510024510 10 338 0.0 0.0 0.00 0.00 0.00 55 995.2
20260510024017 11 338 0.0 0.0 0.00 0.00 0.00 55 995.1
20260510023510 11 338 0.0 0.0 0.00 0.00 0.00 54 994.9
20260510023011 11 338 0.0 0.0 0.00 0.00 0.00 54 994.9
20260510022511 11 338 0.0 0.0 0.00 0.00 0.00 53 994.9
20260510022011 11 338 0.0 0.0 0.00 0.00 0.00 53 994.7
20260510021510 11 338 0.0 0.0 0.00 0.00 0.00 53 994.5
20260510021009 12 338 0.0 0.0 0.00 0.00 0.00 53 994.5
20260510020509 12 338 0.0 0.0 0.00 0.00 0.00 52 994.5
20260510015510 12 338 0.0 0.0 0.00 0.00 0.00 52 994.2
20260510015010 12 315 0.0 0.0 0.00 0.00 0.00 51 994.1
20260510014510 13 338 0.0 0.0 0.00 0.00 0.00 51 993.9
20260510014010 13 0 0.0 0.0 0.00 0.00 0.00 51 993.9
20260510013510 13 0 0.0 0.0 0.00 0.00 0.00 50 993.5
20260510013011 13 315 0.0 0.0 0.00 0.00 0.00 49 993.5
20260510012510 13 293 0.0 0.0 0.00 0.00 0.00 49 993.2
20260510011511 13 338 0.0 0.0 0.00 0.00 0.00 48 992.8
20260510011010 14 315 0.0 0.0 0.00 0.00 0.00 48 992.8
20260510010510 14 315 0.0 0.0 0.00 0.00 0.00 48 992.5
20260510010009 14 338 0.0 0.0 0.00 0.00 0.00 47 992.5
20260510005518 14 338 0.0 0.0 0.00 0.00 0.00 47 992.5
20260510005011 15 338 0.0 0.0 0.00 0.00 0.00 47 992.2
20260510004511 15 315 0.0 0.0 0.00 0.00 0.00 47 992.2
20260510004017 15 338 0.0 0.0 0.00 0.00 0.00 47 992.2
20260510003510 15 0 0.0 0.0 0.00 0.00 0.00 48 992.2
20260510003009 15 293 0.0 0.0 0.00 0.00 0.00 48 991.9
20260510002516 15 338 0.0 0.0 0.00 0.00 0.00 48 991.8
20260510002011 15 338 0.0 0.0 0.00 0.00 0.00 47 991.8
20260510001510 15 338 0.0 0.0 0.00 0.00 0.00 47 991.5
20260510001010 15 338 0.0 0.0 0.00 0.00 0.00 46 991.5
20260510000510 16 293 0.0 0.0 0.00 0.00 0.00 46 991.4
20260510000012 16 338 0.0 0.0 0.00 0.00 0.00 45 991.1
20260509235517 16 338 0.0 0.0 0.00 0.00 0.00 45 991.1
20260509235011 16 315 0.0 0.0 0.00 0.00 0.00 44 991.1
20260509234511 16 315 0.0 0.0 0.00 0.00 0.00 44 991.1
20260509234011 16 315 0.0 0.0 0.00 0.00 0.00 44 990.8
20260509233011 17 338 0.0 0.0 0.00 0.00 0.00 43 990.6